Theta_e
336 334 334 335 333 329 323 316 309 305 302 297 296 296 297 296 295 293 292 291 291 290 289 288 289 288 288 288 288 289 289 290 290 290 291 291 292 294
335 335 334 334 333 330 330 320 315 309 301 299 296 295 295 294 293 292 291 291 290 289 288 287 287 287 287 287 287 287 287 288 288 288 289 289 290 291
336 335 333 333 331 329 327 321 316 311 299 295 296 294 293 293 291 291 291 291 289 288 287 287 287 286 286 286 286 286 286 286 287 287 286 287 287 288
333 333 332 330 329 326 324 318 312 308 306 294 292 293 293 291 290 290 290 290 289 288 287 287 287 286 285 285 285 285 285 285 285 285 285 285 285 287
333 332 332 329 324 319 318 314 307 305 305 300 292 292 290 289 289 289 290 289 288 288 288 287 287 285 285 285 284 284 284 285 284 284 284 284 284 285
332 331 330 326 322 315 311 310 304 302 300 297 293 291 290 288 288 288 289 289 287 288 288 287 286 285 284 284 284 284 284 284 284 284 283 282 282 283
326 325 327 325 323 323 325 306 303 301 298 295 291 290 289 287 287 287 288 289 287 286 287 286 286 285 284 283 283 282 282 283 283 283 283 281 281 281
320 319 319 317 316 323 314 307 304 302 297 293 292 290 289 289 288 288 288 286 286 286 287 286 285 284 284 283 282 281 281 281 282 282 282 281 281 281
322 319 317 319 321 313 305 304 302 301 300 300 296 293 291 291 289 288 288 288 286 286 287 285 284 284 284 284 282 281 280 280 280 280 280 280 280 281
321 323 323 320 314 313 305 301 299 298 298 297 296 295 294 292 291 290 288 287 286 285 285 285 284 284 283 284 283 282 281 279 279 279 279 278 278 279
317 319 314 317 311 305 301 298 296 295 295 295 294 293 292 290 289 288 287 287 284 285 284 285 282 283 284 283 282 281 280 280 279 279 278 278 278 278
310 307 311 312 305 302 301 298 295 292 292 291 290 290 289 288 288 288 288 287 285 284 284 284 283 283 284 283 282 281 280 279 279 279 278 277 277 277
303 304 302 306 304 303 301 299 297 292 290 290 288 288 287 286 287 287 287 288 286 284 284 284 283 282 282 282 282 280 280 279 279 279 278 276 276 275
302 300 299 303 301 299 298 297 294 291 290 288 287 286 285 285 285 285 286 285 285 286 285 284 283 283 282 281 281 279 279 279 279 278 278 277 277 275
301 297 295 295 296 298 298 295 293 292 290 287 286 285 285 285 285 285 284 284 284 284 284 283 283 282 282 281 280 280 279 279 279 278 277 277 277 277
295 295 298 299 298 295 292 291 291 290 289 287 287 286 285 284 285 285 284 283 284 283 283 283 283 282 282 282 281 280 279 278 277 276 276 277 277 277
297 294 292 292 291 290 290 289 288 289 289 289 287 285 284 284 285 284 284 284 283 282 282 282 282 282 282 282 281 280 279 276 276 276 276 277 277 276
294 291 291 290 289 288 287 287 289 291 291 288 287 286 285 285 285 285 285 284 284 284 283 283 282 281 281 281 280 280 277 277 277 277 276 276 276 276
293 292 291 290 289 289 289 288 289 291 289 288 288 287 286 285 285 285 285 285 284 284 284 283 282 282 280 280 280 280 278 278 277 277 277 277 275 275
293 292 291 291 290 290 290 289 290 290 288 288 288 288 287 287 285 285 285 285 285 285 284 284 283 282 281 279 279 279 279 278 277 277 277 277 276 275
292 292 291 291 290 289 289 289 290 289 288 288 287 288 288 287 286 285 286 286 286 284 284 284 283 282 281 279 279 279 279 278 277 277 277 277 276 276
292 292 291 290 289 289 289 289 288 287 288 288 288 288 288 288 287 287 286 285 284 284 284 283 282 281 280 279 279 279 279 278 277 278 278 277 276 276
292 290 289 289 288 288 288 289 288 288 288 288 287 287 288 287 288 287 286 285 285 284 283 282 280 279 279 279 279 278 277 277 278 277 277 278 277 276
Wind_Speed
43 40 36 33 30 26 24 33 19 4 3 13 8 14 14 11 8 6 5 7 8 11 11 11 12 13 15 16 17 18 20 21 22 24 25 27 31 35
44 41 38 33 30 26 27 34 26 13 4 7 8 22 17 13 10 8 7 7 8 9 10 11 13 13 15 15 16 18 20 22 22 24 26 28 31 33
45 43 39 35 31 30 28 29 31 20 13 7 17 24 19 15 13 11 8 7 7 8 9 9 11 13 14 15 17 18 20 23 24 25 26 27 29 30
44 41 38 33 31 32 27 28 28 23 14 17 26 24 19 16 14 12 12 10 8 7 6 8 11 13 13 16 16 18 21 22 25 25 24 24 27 30
43 42 39 35 32 29 28 27 26 22 20 23 20 24 22 20 18 15 15 12 9 7 5 6 10 12 13 14 17 20 21 22 24 25 24 24 26 29
41 42 40 37 36 33 27 22 27 24 22 30 24 26 24 22 19 20 19 16 9 7 6 6 10 11 13 16 18 21 21 21 22 25 24 26 25 28
37 37 39 40 39 33 28 35 30 28 29 31 24 23 22 27 25 20 19 18 10 7 10 6 7 9 13 16 18 20 21 22 22 23 24 27 28 27
35 35 36 34 34 29 36 34 30 35 35 23 23 25 26 26 24 24 25 13 6 8 10 7 6 6 10 14 16 18 20 22 23 24 26 25 24 25
39 40 35 34 30 28 26 21 32 31 29 32 33 32 31 29 29 26 24 16 9 11 13 7 5 4 6 10 13 15 18 20 21 21 23 23 22 23
42 42 42 41 39 38 33 35 31 26 23 20 20 24 18 26 23 22 22 19 16 10 11 5 6 6 3 7 11 13 15 18 18 19 20 20 21 22
39 42 46 45 42 41 42 39 31 25 21 17 19 22 20 23 23 26 25 25 6 6 5 8 6 5 4 2 8 9 12 14 16 18 20 19 19 19
34 38 42 44 46 46 46 44 36 30 29 27 25 24 24 23 20 16 22 19 12 5 9 8 7 6 3 3 2 6 9 11 12 16 18 19 19 20
33 35 39 45 49 47 45 42 41 37 32 30 28 26 24 23 21 17 17 13 14 5 13 9 8 7 4 3 4 3 6 10 11 13 16 18 18 20
34 34 38 44 46 43 40 37 35 35 33 31 30 27 26 24 21 17 15 14 11 9 14 11 6 6 5 3 3 1 2 5 10 12 14 14 16 17
31 32 37 42 41 38 36 34 37 34 35 34 31 30 28 28 24 21 17 15 15 14 12 11 7 6 4 4 3 2 3 3 9 11 11 13 15 16
32 32 37 39 39 31 27 32 32 34 34 32 32 30 28 29 26 23 21 18 17 14 13 11 8 6 4 3 2 0 3 4 8 7 6 7 9 13
39 41 40 38 34 33 36 35 33 30 28 25 29 32 30 30 27 23 21 20 13 16 14 11 9 7 4 4 4 2 3 3 6 8 5 3 7 9
42 36 34 34 33 33 30 29 34 33 31 32 32 33 33 32 29 26 22 23 18 16 16 14 11 7 3 4 4 4 2 2 5 6 5 3 4 7
30 30 31 33 34 35 36 35 31 34 32 32 32 34 32 30 30 29 26 23 20 16 15 14 13 9 3 2 3 5 4 2 3 4 5 5 3 4
31 32 31 32 34 36 36 34 35 37 36 34 31 33 34 33 30 27 27 25 22 17 15 17 15 13 9 4 3 5 6 4 3 4 4 4 5 2
28 30 32 34 35 35 36 36 39 38 36 35 32 34 33 34 31 30 30 28 23 19 19 21 18 13 10 6 3 4 7 6 6 5 5 6 6 1
29 30 32 33 34 35 36 35 34 33 35 37 35 34 35 35 33 33 30 27 25 22 19 19 17 15 12 9 7 5 5 6 8 8 8 7 4 3
30 30 32 33 34 35 35 38 35 35 37 36 35 36 37 35 34 32 29 27 24 21 20 19 19 16 11 9 7 6 5 5 7 7 9 10 8 7
Wind_Direction
232 229 228 222 216 205 204 192 151 160 170 176 159 174 175 165 160 152 134 107 81 74 72 64 58 49 45 37 29 22 19 12 9 6 3 2 1 360
230 228 226 223 220 209 210 205 201 163 137 159 170 170 174 169 165 162 148 108 86 86 79 65 58 55 47 37 26 22 19 15 11 8 8 7 5 3
229 228 225 222 217 207 204 205 205 191 131 129 155 169 166 174 168 167 162 136 113 109 87 66 55 52 45 31 24 22 20 20 14 12 11 9 8 6
225 220 217 214 210 203 201 196 200 191 159 141 154 165 175 172 171 170 168 159 148 133 106 65 49 42 42 34 26 24 24 19 16 14 10 8 9 9
224 216 212 205 194 194 190 190 192 189 185 170 153 170 163 171 166 166 164 155 143 140 126 72 43 43 42 36 27 26 27 21 19 16 11 9 10 12
220 215 210 200 188 185 186 179 189 176 174 165 152 161 166 171 174 165 165 163 134 146 125 80 50 52 42 39 31 28 25 26 22 17 15 17 18 18
214 210 205 202 194 192 187 192 187 171 169 158 151 160 167 170 181 177 172 166 140 138 140 105 61 56 45 38 34 33 28 29 28 24 21 22 23 24
199 202 200 194 180 193 197 192 194 183 171 160 163 164 175 177 179 174 163 156 178 150 138 123 91 67 52 41 34 34 33 34 33 30 28 27 25 28
205 199 189 190 194 187 197 180 198 200 201 187 177 178 173 178 173 168 173 170 149 144 152 134 118 91 60 41 35 33 31 33 32 32 34 30 29 29
205 200 192 195 196 189 176 184 187 188 186 186 190 177 178 172 174 179 172 150 134 132 167 148 161 167 116 36 30 28 27 30 30 30 31 29 29 32
204 199 199 192 190 183 175 175 167 162 166 169 168 162 161 168 171 164 157 149 134 166 172 160 171 169 210 16 31 28 32 32 29 28 22 23 28 29
194 193 196 195 181 182 180 173 161 160 158 152 150 151 163 166 165 173 168 156 133 153 185 154 152 170 191 200 330 21 33 30 25 26 20 20 25 29
180 185 191 193 181 183 187 181 177 164 158 156 153 152 159 160 161 164 170 179 163 145 170 163 164 167 178 187 174 21 25 26 18 23 25 29 31 32
181 182 184 182 178 180 180 178 168 161 157 158 157 158 163 158 154 154 158 162 171 158 157 161 155 178 182 168 182 29 276 7 13 17 25 33 40 41
183 180 167 167 170 176 185 176 170 166 166 164 161 169 173 161 153 148 145 150 144 144 149 149 150 140 164 158 168 5 21 266 351 5 12 21 29 33
163 164 164 166 170 169 170 170 175 172 174 172 168 173 170 165 165 164 154 153 153 158 161 160 164 173 183 184 190 253 352 346 333 356 359 18 27 33
160 153 153 156 157 161 171 173 175 169 174 185 179 173 173 176 175 171 171 162 170 174 168 170 170 187 212 237 245 245 317 335 328 350 352 350 28 31
154 156 160 160 159 158 162 166 174 179 189 191 184 180 181 185 182 181 180 184 184 187 189 185 184 185 234 252 228 226 256 338 332 348 360 352 35 40
159 165 165 167 166 166 167 174 175 185 193 192 190 188 188 188 188 189 190 195 197 203 203 204 202 207 178 233 227 223 228 303 326 324 350 6 29 57
169 171 174 173 171 170 174 179 177 185 192 194 197 196 195 194 191 192 194 196 200 204 206 204 210 218 217 224 206 206 218 241 293 312 348 350 0 340
179 177 177 176 178 176 176 179 182 186 187 191 197 200 200 199 197 199 204 204 202 200 201 205 208 216 224 215 211 229 230 239 254 280 309 318 336 8
186 183 181 178 176 178 178 179 182 184 188 192 200 204 206 206 202 204 204 193 198 207 207 202 198 201 206 217 223 228 233 237 248 262 275 269 282 303
189 184 179 174 177 178 177 182 186 189 196 197 200 205 209 203 204 207 204 202 202 197 196 187 192 197 206 218 225 223 228 241 262 267 277 254 260 282